Weather History for KITR - October, 2013

Change the Weather History Date:

Tuesday, October 22, 2013

  Actual Average Record
Temperature  
Mean Temperature 53 °F 49 °F  
Max Temperature 68 °F 63 °F 87 °F (2003)
Min Temperature 38 °F 34 °F 19 °F (1936)
Degree Days  
Heating Degree Days 10    
Growing Degree Days 5 (Base 50)    
Moisture  
Dew Point 33 °F    
Average Humidity 51    
Maximum Humidity 70    
Minimum Humidity 25    
Precipitation  
Precipitation 0.00 in 0.04 in 0.58 in (1978)
Month to date precipitation 0.62 0.89  
Year to date precipitation 16.52 16.18  
Sea Level Pressure  
Sea Level Pressure 30.08 in    
Wind  
Wind Speed 9 mph (WNW)    
Max Wind Speed 20 mph    
Max Gust Speed 29 mph    
Visibility 10 miles    
Events      
T = Trace of Precipitation, MM = Missing Value Source: NWS Daily Summary

Daily Weather History Graph

Daily Weather History Graph

Search for Another Location

Airport or City:

Trip Planner

Search our weather history database for the weather conditions in past years. The results will help you decide how hot, cold, wet, or windy it might be!

Date:

Astronomy

Oct. 22, 2013 Rise Set
Actual Time 7:06 AM MDT 6:00 PM MDT
Civil Twilight 6:39 AM MDT 6:27 PM MDT
Nautical Twilight 6:07 AM MDT 6:58 PM MDT
Astronomical Twilight 5:36 AM MDT 7:29 PM MDT
Moon 8:43 PM MDT (10/22) 10:35 AM MDT (10/22)
Length of Visible Light 11h 48m
Length of Day
10h 53m
Waning Gibbous, 86% of the Moon is Illuminated
Oct 22
Waning Gibbous
Oct 26
Last Quarter
Nov 3
New
Nov 9
First Quarter
Nov 17
Full

Hourly Weather History & Observations

Time (MDT) Temp. Windchill Dew Point Humidity Pressure Visibility Wind Dir Wind Speed Gust Speed Precip Events Conditions
12:53 AM 48.0 °F - 32.0 °F 54% 30.06 in 10.0 mi West 11.5 mph - N/A   Overcast
1:53 AM 48.9 °F - 30.9 °F 50% 30.05 in 10.0 mi West 9.2 mph - N/A   Overcast
2:53 AM 46.9 °F - 33.1 °F 59% 30.06 in 10.0 mi West 4.6 mph - N/A   Overcast
3:53 AM 46.0 °F 43.1 °F 34.0 °F 63% 30.06 in 10.0 mi WNW 5.8 mph - N/A   Overcast
4:53 AM 45.0 °F 41.8 °F 34.0 °F 65% 30.07 in 10.0 mi WNW 5.8 mph - N/A   Overcast
5:53 AM 45.0 °F 41.8 °F 35.1 °F 68% 30.10 in 10.0 mi WNW 5.8 mph - N/A   Overcast
6:53 AM 45.0 °F 41.8 °F 35.1 °F 68% 30.11 in 10.0 mi West 5.8 mph - N/A   Overcast
7:53 AM 46.0 °F 42.5 °F 36.0 °F 68% 30.14 in 10.0 mi West 6.9 mph - N/A   Overcast
8:53 AM 50.0 °F - 36.0 °F 59% 30.15 in 10.0 mi West 9.2 mph - N/A   Overcast
9:53 AM 57.0 °F - 35.1 °F 44% 30.13 in - WNW 13.8 mph - N/A   Mostly Cloudy
10:53 AM 62.1 °F - 35.1 °F 37% 30.11 in 10.0 mi NW 16.1 mph - N/A   Unknown
11:53 AM 64.9 °F - 33.1 °F 31% 30.10 in 10.0 mi North - - N/A   Clear
12:53 PM 64.9 °F - 33.1 °F 31% 30.06 in 10.0 mi NNW 15.0 mph 25.3 mph N/A   Clear
1:53 PM 66.9 °F - 33.1 °F 28% 30.04 in 10.0 mi NW 16.1 mph 26.5 mph N/A   Partly Cloudy
2:53 PM 68.0 °F - 30.9 °F 25% 30.04 in 10.0 mi NW 19.6 mph 28.8 mph N/A   Partly Cloudy
3:53 PM 66.0 °F - 32.0 °F 28% 30.05 in 10.0 mi NW 9.2 mph - N/A   Clear
4:53 PM 64.9 °F - 32.0 °F 29% 30.06 in 10.0 mi NW 10.4 mph - N/A   Partly Cloudy
5:53 PM 60.1 °F - 34.0 °F 38% 30.06 in 10.0 mi NW 3.5 mph - N/A   Clear
6:53 PM 52.0 °F - 33.1 °F 49% 30.08 in 10.0 mi North 4.6 mph - N/A   Clear
7:53 PM 43.0 °F 39.5 °F 33.1 °F 68% 30.11 in 10.0 mi SW 5.8 mph - N/A   Clear
8:53 PM 42.1 °F 40.2 °F 32.0 °F 67% 30.11 in 10.0 mi SSW 3.5 mph - N/A   Clear
9:53 PM 46.0 °F 41.9 °F 32.0 °F 58% 30.08 in 10.0 mi ESE 8.1 mph - N/A   Clear
10:53 PM 42.1 °F 37.7 °F 32.0 °F 67% 30.08 in 10.0 mi South 6.9 mph - N/A   Clear
11:53 PM 41.0 °F 35.8 °F 32.0 °F 70% 30.07 in 10.0 mi South 8.1 mph - N/A   Clear